Location: Unspecified
(48.8656°N, 0.0000°E)
Time: 04:51:57
(UTC+00:00)

Courier 1B - Visible Passes

Search period start: 20 June 2019 00:00
Search period end: 30 June 2019 00:00
Orbit: 963 x 1209 km, 28.3° (Epoch: 18 June)

Date Brightness Start Highest point End Pass type
(mag) Time Alt. Az. Time Alt. Az. Time Alt. Az.
20 Jun 9.4 22:12:29 10° SW 22:16:01 14° S 22:16:39 14° S visible
21 Jun 9.4 21:18:41 10° SW 21:22:29 14° S 21:25:56 11° SSE visible
22 Jun 9.6 22:20:07 10° SSW 22:21:40 11° SSW 22:22:04 11° SSW visible
23 Jun 9.6 21:25:28 10° SSW 21:28:10 12° SSW 21:30:54 10° S visible
